COSMOS 2251 DEB, 34882

Orbit data source: Space-Track

COSMOS 2251 DEB, 34882 is space debris in LEO originally from a launch on Wed, 16 Jun 1993 UTC launched from the Plesetsk Missile And Space Complex (PKMTR). The debris from Iridium 33, an American commercial communications satellite, has been tracked extensively since its accidental collision with the defunct Russian satellite Cosmos 2251 in 2009. This event, occurring at high speed in low Earth orbit (LEO), generated thousands of pieces of space debris, significantly increasing the risk of further collisions. The Iridium 33 debris cloud has impacted space traffic management and orbital debris mitigation strategies, making it a subject of ongoing study in space situational awareness.

Loading next visibility...
Identifier
34882, 1993-036ACV
Orbit
LEO
Country
Flag of CISCIS
Related business
Manufacturer
Unknown
Mission
Spacecraft
Bus & Motor
Unknown
Mass
Unknown
Launch date (UTC)
1993-06-16 (33 years ago)
Launch vehicle
Unknown
Launch site
Plesetsk Missile And Space Complex (PKMTR)
Object type
Payload
Rocket body
Debris
Shape & HBR
Unknown shape, 0.1 m
Radar Cross Section
Small (<0.1 m²)

Expand to show TLE details & history
Last TLE update: 16 hours ago

TLE from 16 hours ago
0 COSMOS 2251 DEB
1 34882U 93036ACV 26177.51101067  .00000480  00000-0  97614-4 0  9993
2 34882  74.0454 211.1560 0083632 288.2757  70.9322 14.61935611913854
Epoch: 2026-06-26T12:15Z
TLE epoch observation values (Epoch: 2026-06-26T12:15:51.321Z)
Latitude
-0.00011°
Longitude
112.55366°
Altitude
670.711 km
Speed
7.532 km/s
True Right ascension
14h 04m 37s
True Declination
0° 00' 00"
Sunlit
Object was in daylight at epoch
Visualization orbit readout
Latitude
Unknown
Longitude
Unknown
Altitude
Unknown
Speed
Unknown
Apparent Right ascension
Unknown
Apparent Declination
Unknown
Sunlit
N/A
Visualization observer readout
Local Sidereal Time
15:43:11
Azimuth
Unknown
Elevation
Unknown
Doppler factor
Unknown
Orbital elements
Apogee altitude
743.592 km
Perigee altitude
625.459 km
Semi-major axis
7,062.662 km
Eccentricity
0.00836
Inclination
74.0454°
RAAN
211.156°
Arg. of periapsis
288.2757°
True anomaly
71.84104°
Mean anomaly
70.9322°
Eccentric anomaly
71.38631°
Mean motion
3.65671 °/min
Orbital period
98.45 mins
BSTAR
0.000097614
Loading maneuver chart data...
Computing Atmospheric mass density...

Documentation

Showing up to 5 results
|